KE4U-1 Weather Reports


time (UTC)temp
F
wind
direction
speed
knots
gust
knots
rain 1hr
in
rain 24hr
in
rain mn
in
humidity
%
barometer
mb
20210920063438 70 0 0.0 0.0 0.00 0.00 0.00 94 1013.0
20210920061056 70 0 0.0 0.0 0.00 0.00 0.00 94 1013.0
20210920055855 71 0 0.0 0.0 0.00 0.00 0.00 94 1012.9
20210920054657 71 0 0.0 0.0 0.00 0.00 0.00 94 1012.8
20210920053457 71 0 0.0 0.0 0.00 0.00 0.00 94 1012.7
20210920052256 71 0 0.0 0.0 0.00 0.00 0.00 94 1012.8
20210920051057 71 0 0.0 0.0 0.00 0.00 0.00 94 1012.7
20210920045856 71 0 0.0 0.0 0.00 0.00 0.00 94 1012.7
20210920044250 71 0 0.0 0.0 0.00 0.00 0.00 93 1012.6
20210920043050 71 0 0.0 0.0 0.00 0.00 0.00 93 1012.5
20210920041850 71 0 0.0 0.0 0.00 0.00 0.00 93 1012.6
20210920040649 71 0 0.0 0.0 0.00 0.00 0.00 93 1012.5
20210920035451 71 0 0.0 0.0 0.00 0.00 0.00 93 1012.4
20210920034249 71 0 0.0 0.0 0.00 0.00 0.00 93 1012.3
20210920033051 71 0 0.0 0.0 0.00 0.00 0.00 93 1012.3
20210920031851 72 0 0.0 0.0 0.00 0.00 0.00 93 1012.2
20210920030649 72 0 0.0 0.0 0.00 0.00 0.00 93 1012.1
20210920024953 72 0 0.0 0.0 0.00 0.00 0.00 92 1012.1
20210920023753 72 0 0.0 0.0 0.00 0.00 0.00 91 1011.9
20210920022554 72 0 0.0 0.0 0.00 0.00 0.00 90 1011.7
20210920021353 73 0 0.0 0.0 0.00 0.00 0.00 90 1011.6
20210920020154 73 0 0.0 0.0 0.00 0.00 0.00 89 1011.6
20210920014953 74 0 0.0 0.0 0.00 0.00 0.00 88 1011.5
20210920013753 74 0 0.0 0.0 0.00 0.00 0.00 87 1011.5
20210920012555 75 0 0.0 0.0 0.00 0.00 0.00 86 1011.4
20210920011353 75 0 0.0 0.0 0.00 0.00 0.00 86 1011.2
20210920010153 76 0 0.0 0.0 0.00 0.00 0.00 85 1011.2
20210920004953 76 0 0.0 0.0 0.00 0.00 0.00 85 1011.1
20210920003753 77 0 0.0 0.0 0.00 0.00 0.00 85 1010.9
20210920002553 77 0 0.0 0.0 0.00 0.00 0.00 84 1010.7
20210920001353 77 0 0.0 0.0 0.00 0.00 0.00 84 1010.5
20210920000152 78 0 0.0 0.0 0.00 0.00 0.00 84 1010.5
20210919234952 78 0 0.0 0.0 0.00 0.00 0.00 83 1010.4
20210919232555 79 0 0.0 0.0 0.00 0.00 0.00 81 1010.4
20210919231354 79 0 0.0 0.0 0.00 0.00 0.00 79 1010.1
20210919230155 80 0 0.0 0.0 0.00 0.00 0.00 78 1010.0
20210919225003 80 0 0.0 0.0 0.00 0.00 0.00 76 1009.9
20210919223754 81 0 0.0 0.0 0.00 0.00 0.00 74 1009.8
20210919222553 82 0 0.0 0.0 0.00 0.00 0.00 73 1009.9
20210919221353 82 0 0.0 0.0 0.00 0.00 0.00 71 1009.8
20210919220153 83 0 0.0 0.0 0.00 0.00 0.00 70 1009.7
20210919214955 84 0 0.0 0.0 0.00 0.00 0.00 70 1009.6
20210919213618 85 0 0.0 0.0 0.00 0.00 0.00 66 1009.6
20210919212418 86 0 0.0 1.7 0.00 0.00 0.00 60 1009.6
20210919210338 88 0 0.0 1.7 0.00 0.00 0.00 53 1009.7
20210919205137 89 0 0.0 2.6 0.00 0.00 0.00 53 1009.8
20210919203939 89 0 0.0 2.6 0.00 0.00 0.00 53 1009.9
20210919202740 90 0 0.0 1.7 0.00 0.00 0.00 53 1009.9
20210919201538 90 189 0.9 4.3 0.00 0.00 0.00 49 1010.1
20210919195619 90 172 0.9 8.7 0.00 0.00 0.00 53 1010.4
20210919194419 91 0 0.0 2.6 0.00 0.00 0.00 53 1010.3
20210919193219 91 167 1.7 5.2 0.00 0.00 0.00 54 1010.6
20210919192019 91 0 0.0 3.5 0.00 0.00 0.00 49 1010.6
20210919190820 92 0 0.0 3.5 0.00 0.00 0.00 48 1010.8
20210919185022 91 0 0.0 3.5 0.00 0.00 0.00 49 1011.0
20210919183822 92 0 0.0 0.9 0.00 0.00 0.00 53 1011.1
20210919182623 91 0 0.0 3.5 0.00 0.01 0.00 55 1011.2
20210919181424 91 281 0.9 5.2 0.00 0.01 0.00 50 1011.2
20210919180222 91 195 0.9 7.8 0.00 0.01 0.00 52 1011.5
20210919175024 91 201 0.9 10.4 0.00 0.01 0.00 53 1011.5
20210919173453 90 201 1.7 7.8 0.00 0.01 0.00 54 1011.7
20210919172252 90 189 0.9 4.3 0.00 0.01 0.00 57 1011.8
20210919171054 89 0 0.0 6.1 0.00 0.01 0.00 57 1012.0
20210919165852 88 0 0.0 3.5 0.00 0.01 0.00 62 1012.1
20210919164655 87 0 0.0 0.9 0.00 0.01 0.00 66 1012.2
20210919163457 87 194 0.9 2.6 0.00 0.01 0.00 64 1012.3
20210919160319 84 334 0.9 3.5 0.00 0.01 0.00 74 1012.6
20210919155118 82 0 0.0 4.3 0.00 0.01 0.00 74 1012.6
20210919153918 81 0 0.0 2.6 0.00 0.01 0.00 80 1012.7
20210919152718 80 0 0.0 3.5 0.00 0.01 0.00 80 1012.6
20210919151517 78 0 0.0 4.3 0.00 0.01 0.00 87 1012.7
20210919150318 76 0 0.0 1.7 0.00 0.01 0.00 93 1012.7
20210919145118 75 0 0.0 1.7 0.00 0.01 0.00 95 1012.7
20210919143918 75 0 0.0 0.0 0.00 0.01 0.00 95 1012.8
20210919142723 74 0 0.0 0.9 0.00 0.01 0.00 96 1012.6
20210919141518 73 0 0.0 0.0 0.00 0.01 0.00 96 1012.6
20210919140318 73 0 0.0 0.0 0.00 0.01 0.00 96 1012.5
20210919135117 72 0 0.0 0.0 0.00 0.01 0.00 96 1012.4
20210919133920 70 0 0.0 0.0 0.00 0.01 0.00 96 1012.3
20210919132720 70 0 0.0 0.0 0.00 0.01 0.00 96 1012.1
20210919131517 69 0 0.0 0.0 0.00 0.01 0.00 96 1012.1
20210919130317 68 0 0.0 0.0 0.00 0.01 0.00 96 1012.0
20210919124151 67 0 0.0 0.0 0.00 0.01 0.00 96 1011.9
20210919122951 67 0 0.0 0.0 0.00 0.01 0.00 95 1011.8
20210919121751 66 0 0.0 0.0 0.00 0.01 0.00 96 1011.8
20210919120551 66 0 0.0 0.0 0.00 0.01 0.00 95 1011.9
20210919114652 66 0 0.0 0.0 0.00 0.01 0.00 95 1011.7
20210919112944 66 0 0.0 0.0 0.00 0.01 0.01 95 1011.7
20210919111743 66 0 0.0 0.0 0.00 0.01 0.01 95 1011.6
20210919110546 66 0 0.0 0.0 0.00 0.01 0.01 95 1011.4
20210919105343 66 0 0.0 0.0 0.00 0.01 0.01 95 1011.3
20210919104141 66 0 0.0 0.0 0.00 0.01 0.01 95 1011.3
20210919102947 66 0 0.0 0.0 0.00 0.01 0.01 95 1011.2
20210919101742 66 0 0.0 0.0 0.00 0.01 0.01 95 1011.1
20210919100543 66 0 0.0 0.0 0.00 0.01 0.01 95 1011.0
20210919095344 66 0 0.0 0.0 0.00 0.01 0.01 95 1011.0
20210919094142 66 0 0.0 0.0 0.00 0.01 0.01 95 1010.9
20210919092942 66 0 0.0 0.0 0.00 0.01 0.01 95 1010.9
20210919091745 66 0 0.0 0.0 0.00 0.01 0.01 95 1010.9
20210919090542 66 0 0.0 0.0 0.00 0.01 0.01 95 1010.8
20210919085341 66 0 0.0 0.0 0.00 0.01 0.01 95 1010.8
20210919084142 66 0 0.0 0.0 0.00 0.01 0.01 95 1010.8
20210919082941 66 0 0.0 0.0 0.00 0.01 0.01 95 1010.8
20210919081742 67 0 0.0 0.0 0.00 0.01 0.01 95 1010.9
20210919080542 67 0 0.0 0.0 0.00 0.01 0.01 95 1010.8
20210919075342 67 0 0.0 0.0 0.00 0.01 0.01 95 1010.7
20210919074141 67 0 0.0 0.0 0.00 0.01 0.01 95 1010.8
20210919072942 67 0 0.0 0.0 0.00 0.01 0.01 95 1010.8
20210919071741 67 0 0.0 0.0 0.00 0.01 0.01 95 1010.7
20210919070037 68 0 0.0 0.0 0.00 0.01 0.01 95 1010.8
20210919064837 68 0 0.0 0.0 0.00 0.01 0.01 95 1010.8